Location: Newark
(41.8083°N, 72.2500°W)
Time: 19:37:18
(UTC+00:00)

deb Explorer IX - Pass Details

Date: 30 November 2021
Orbit: 544 x 1082 km, 38.8° (Epoch: 16 January)

Event Time Altitude Azimuth Distance (km) Brightness Sun altitude
Rises 16:43:25 0° 238° (WSW) 2,836 ? 26.4°
Reaches altitude 10° 16:45:54 10° 230° (SW) 1,879 ? 26.4°
Maximum altitude 16:49:49 36° 163° (SSE) 874 ? 26.4°
Drops below altitude 10° 16:53:34 10° 96° (E) 1,803 ? 26.3°
Sets 16:55:55 0° 87° (E) 2,703 ? 26.3°
